This is the latest recevied weather packets stored in our database for station/object N5PRN. If no packets are shown the sender has not sent any weather packets the latest 1 day(s).
| Time | Temp. | Humidity | Pressure | Rain* | Wind** | Luminosity | Snow |
|---|---|---|---|---|---|---|---|
| 1778041077 | 23.89° C | 95% | 1009.9 hPa | 0 mm | 1.34 m/s, 192° | 0 W/m² | - |
| 1778040774 | 23.89° C | 95% | 1010.1 hPa | 0 mm | 1.34 m/s, 194° | 0 W/m² | - |
| 1778040471 | 23.89° C | 95% | 1010.2 hPa | 0 mm | 1.34 m/s, 189° | 0 W/m² | - |
| 1778040168 | 23.89° C | 95% | 1010.2 hPa | 0 mm | 0.89 m/s, 182° | 0 W/m² | - |
| 1778039865 | 23.89° C | 94% | 1010.1 hPa | 0 mm | 1.34 m/s, 196° | 0 W/m² | - |
| 1778039562 | 23.89° C | 94% | 1010 hPa | 0 mm | 0 m/s | 0 W/m² | - |
| 1778039259 | 23.89° C | 94% | 1009.9 hPa | 0 mm | 0 m/s | 0 W/m² | - |
| 1778038956 | 23.89° C | 94% | 1009.8 hPa | 0 mm | 0.89 m/s, 210° | 0 W/m² | - |
| 1778038653 | 23.89° C | 94% | 1009.9 hPa | 0 mm | 0 m/s | 0 W/m² | - |
| 1778038350 | 23.89° C | 94% | 1009.7 hPa | 0 mm | 0.45 m/s, 231° | 0 W/m² | - |
| 1778038047 | 23.89° C | 94% | 1009.9 hPa | 0 mm | 0 m/s | 0 W/m² | - |
| 1778037744 | 23.89° C | 94% | 1009.6 hPa | 0 mm | 0.45 m/s, 216° | 0 W/m² | - |
| 1778037440 | 23.89° C | 93% | 1009.4 hPa | 0 mm | 0.89 m/s, 213° | 0 W/m² | - |
| 1778037138 | 23.89° C | 94% | 1009.3 hPa | 0 mm | 0.45 m/s, 195° | 0 W/m² | - |
| 1778036836 | 23.89° C | 94% | 1009.5 hPa | 0 mm | 0.89 m/s, 204° | 0 W/m² | - |
| 1778036533 | 23.89° C | 94% | 1009.6 hPa | 0 mm | 1.34 m/s, 218° | 0 W/m² | - |
| 1778036230 | 23.89° C | 94% | 1009.7 hPa | 0 mm | 1.34 m/s, 235° | 0 W/m² | - |
| 1778035926 | 23.89° C | 94% | 1009.1 hPa | 0 mm | 0.45 m/s, 219° | 0 W/m² | - |
| 1778035623 | 23.89° C | 94% | 1009.4 hPa | 0 mm | 0 m/s | 0 W/m² | - |
| 1778035319 | 23.89° C | 93% | 1009 hPa | 0 mm | 0.89 m/s, 205° | 0 W/m² | - |
| 1778035016 | 23.89° C | 93% | 1009.4 hPa | 0 mm | 0.89 m/s, 212° | 0 W/m² | - |
| 1778034714 | 23.89° C | 93% | 1009.3 hPa | 0 mm | 0.89 m/s, 230° | 0 W/m² | - |
| 1778034410 | 23.89° C | 93% | 1009 hPa | 0 mm | 1.34 m/s, 214° | 0 W/m² | - |
| 1778034108 | 23.89° C | 93% | 1009 hPa | 0 mm | 0.89 m/s, 202° | 0 W/m² | - |
| 1778033806 | 23.89° C | 93% | 1008.9 hPa | 0 mm | 0.89 m/s, 160° | 0 W/m² | - |
* Rain latest hour (hover to see other rain measurements)
** Current wind speed in m/s (hover to see current wind gust speed)